Location: Caldégas
(42.4422°N, 1.9670°E)
Time: 00:16:53
(UTC+00:00)

Daily predictions for brighter satellites

Satellite Brightness Start Highest point End
(mag) Time Altitude Azimuth Time Altitude Azimuth Time Altitude Azimuth
ACS3 Solar Sail 4.5 02:03:26 10° NE 02:03:44 11° NE 02:03:44 11° NE
Cosmos 2219 Rocket 4.4 02:55:06 20° NE 02:55:06 20° NE 02:56:55 10° NE
USA 267 3.8 03:15:28 10° NE 03:20:18 53° NE 03:20:18 53° NE
Cosmos 2333 Rocket 4.3 03:39:30 16° N 03:39:30 16° N 03:40:49 10° N
COSMOS 2455 4.3 03:45:06 26° N 03:45:06 26° N 03:47:53 10° NNE
ACS3 Solar Sail 3.1 03:45:13 10° N 03:47:53 28° N 03:47:53 28° N
BlueWalker 3 4.4 03:53:51 19° ENE 03:53:51 19° ENE 03:55:16 10° E
Cosmos 2360 Rocket 3.9 03:59:09 20° N 03:59:09 20° N 04:01:09 10° N
Cosmos 2322 Rocket 4.0 03:59:31 18° N 03:59:31 18° N 04:01:15 10° N
USA 234 3.3 03:50:45 10° ESE 03:57:16 74° NE 03:58:52 53° NNW
Gbstr 26 Del rocket 3.7 03:59:16 62° ENE 03:59:16 62° ENE 04:04:02 10° ENE
SL-16 R/B 4.5 04:06:02 12° N 04:06:02 12° N 04:06:30 10° N
Cosmos 44 Rocket 4.5 04:05:02 31° N 04:06:47 41° NE 04:11:38 10° ESE
Meteor 2-14 Rocket 4.4 04:03:46 10° S 04:09:52 82° E 04:15:59 10° N
Cosmos 1943 Rocket 3.7 04:06:18 10° N 04:11:14 32° NE 04:16:06 10° ESE
ARGOS 3.2 04:11:33 10° N 04:16:17 60° NW 04:16:17 60° NW
PAYLOAD A 4.0 04:12:22 10° NNE 04:17:48 87° WNW 04:20:29 31° SSW
Cosmos 1140 Rocket 4.1 04:15:56 18° N 04:19:38 54° ENE 04:24:36 10° SE
Cosmos 1809 Rocket 4.3 04:15:43 10° SSW 04:21:48 78° W 04:27:55 10° N
CZ-2C R/B 2.6 04:17:17 10° N 04:21:32 58° NNW 04:21:32 58° NNW
ADEOS Rocket 4.1 04:21:26 10° N 04:25:40 31° NW 04:25:40 31° NW
NOSS 3-1 (C) 2.7 04:27:25 68° WNW 04:27:37 69° NW 04:33:05 10° NNE
Iridium 4 Rocket 4.5 04:29:16 10° NNE 04:33:17 37° E 04:37:08 10° SSE
Cosmos 2100 Rocket 3.9 04:27:40 10° N 04:33:51 87° W 04:40:01 10° S
Cosmos 2219 Rocket 3.2 04:36:50 28° NNW 04:36:50 28° NNW 04:40:39 10° N
NOSS 0 Rocket 4.1 04:35:44 10° SSW 04:41:50 75° ESE 04:47:59 10° NNE
IRS-1D 3.9 04:37:24 10° NNE 04:42:20 63° ESE 04:47:12 10° S
COSMOS 2428 2.6 04:41:30 21° SW 04:45:19 68° WNW 04:51:00 10° NNE
USA 59 Rocket 1.1 04:50:48 20° N 04:50:48 20° N 04:51:59 10° NNE
Cosmos 2322 3.8 04:50:01 28° WSW 04:52:49 51° WNW 04:58:22 10° NNE
SL-08 RB Rocket 4.2 04:49:33 10° N 04:53:29 37° WNW 04:53:29 37° WNW
Cosmos 1459 Rocket 3.9 04:48:45 10° NNW 04:55:04 68° W 05:01:19 10° S
Cosmos 1864 Rocket 4.5 04:49:40 10° N 04:55:59 88° W 05:02:19 10° S
COSMO-SKYMED 1 3.5 04:53:19 10° SE 04:57:15 46° ENE 05:01:13 10° N
Meteor 2-21 4.4 04:51:32 10° SSW 04:57:30 55° WNW 05:03:28 10° N
SKYMED 2 3.8 04:54:12 10° SSE 04:58:30 70° ENE 05:02:51 10° N
FengYun 1-2 T 4.1 04:53:22 10° N 04:58:55 73° WNW 05:04:28 10° SSW
Cosmos 1727 Rocket 4.4 04:54:25 10° SW 05:00:07 38° WNW 05:05:53 10° N
Cosmos 407 Rocket 3.8 04:56:30 10° NNW 05:01:36 65° ENE 05:06:39 10° SSE
Cosmos 1023 Rocket 4.4 04:58:46 16° NNW 05:02:41 58° WSW 05:07:37 10° S
USA 267 4.1 04:58:45 10° NE 05:04:27 33° NNW 05:07:38 22° WNW
Cosmos 1980 3.8 04:59:26 10° SSW 05:05:04 81° ESE 05:10:45 10° NNE
Cosmos 1725 Rocket 3.9 04:59:11 10° N 05:05:32 82° W 05:11:50 10° S
NOSS 3-1 (A) 2.8 05:07:09 10° SW 05:11:45 77° NW 05:17:15 10° NE
Cosmos 1802 Rocket 4.0 05:07:06 10° NNW 05:13:25 65° W 05:19:34 10° S
Cosmos 1269 Rocket 4.3 05:09:27 14° NW 05:13:42 43° WSW 05:18:40 10° S
Cosmos 1328 4.1 05:11:10 10° SW 05:14:30 34° WNW 05:17:53 10° N
Cosmos 1703 Rocket 3.7 05:11:39 10° SSW 05:15:50 47° WNW 05:20:05 10° N
Cosmos 921 Rocket 4.3 05:16:56 21° WSW 05:16:56 21° WSW 05:19:56 10° SSW
Cosmos 2233 Rocket 4.1 05:10:24 10° N 05:16:45 84° E 05:23:02 10° S
Cosmos 2278 Rocket 2.1 05:12:56 10° NNW 05:18:37 81° WSW 05:24:15 10° SSE
NOSS 2-1 (E) 4.0 05:18:52 24° NW 05:19:01 24° NW 05:21:42 10° N
Meteor 2-16 Rocket 4.4 05:14:05 10° SSW 05:20:05 61° W 05:26:09 10° N
Cosmos 2251 Rocket 4.3 05:15:11 10° NNW 05:20:26 53° ENE 05:25:40 10° SE
CZ-3 R/B 3.7 05:11:27 10° SW 05:21:08 24° S 05:25:49 10° SE
Cosmos 2237 Rocket 2.1 05:15:41 10° SSW 05:21:21 82° WNW 05:27:03 10° NNE
Cosmos 1939 Rocket 3.8 05:19:53 10° NNW 05:22:58 23° WNW 05:23:42 22° W
Cosmos 2173 Rocket 4.4 05:18:45 10° NNW 05:24:13 36° W 05:29:40 10° SSW
Cosmos 2292 Rocket 3.7 05:22:20 10° SSW 05:26:17 57° WNW 05:31:25 10° N
SL-08 R/B 4.4 05:21:33 10° NNW 05:27:37 69° W 05:33:43 10° S
BlueWalker 3 1.9 05:27:40 21° WNW 05:29:53 55° SW 05:33:25 10° SE
USA 276 2.2 05:29:39 26° W 05:30:46 44° SW 05:33:28 10° SE
Meteor 1-24 Rocket 4.1 05:25:30 10° SW 05:30:56 41° WNW 05:36:13 10° N
Helios 1A Rocket 2.7 05:28:27 10° S 05:31:42 44° W 05:34:58 10° NNW
Cosmos 2242 Rocket 4.4 05:28:08 10° S 05:32:22 53° E 05:36:40 10° NNE
Cosmos 2369 Rocket 4.4 05:31:39 10° N 05:36:01 22° NE 05:40:23 10° E
CZ-4 R/B 4.2 05:32:59 10° N 05:37:36 42° WNW 05:42:06 10° SW
Cosmos 1782 Rocket 3.6 05:35:28 10° NNW 05:39:46 55° W 05:44:01 10° S
USA 234 4.1 05:34:51 10° S 05:40:36 32° SW 05:46:14 11° WNW
Meteor 2-5 Rocket 4.3 05:36:40 10° SW 05:42:07 37° WNW 05:47:33 10° N
Cosmos 1420 Rocket 4.0 05:38:14 10° SSW 05:43:29 75° WNW 05:48:48 10° NNE
Gbstr 26 Del rocket 4.3 05:41:19 13° W 05:45:29 39° NNW 05:51:16 10° NE
NOAA 12 4.4 05:41:54 10° N 05:46:55 43° WNW 05:51:54 10° SW
Cosmos 44 Rocket 4.3 05:43:41 10° NW 05:48:03 30° WSW 05:52:29 10° S
CENTAUR R/B 4.5 05:42:00 10° NNW 05:49:23 36° NE 05:57:44 10° ESE
ARIANE 5 R/B 4.3 05:47:49 10° NNE 05:52:29 36° E 05:57:11 10° SSE
Cosmos 1943 Rocket 2.7 05:49:55 10° NW 05:54:59 38° WSW 06:00:00 10° S
Cosmos 1812 2.8 05:55:48 10° N 05:58:41 55° E 06:01:32 10° SSE
Cosmos 1300 Rocket 4.4 05:56:24 10° NNW 06:00:08 29° W 06:03:50 10° SSW
Cosmos 2346 Rocket 4.5 05:54:09 10° SSW 06:00:15 62° W 06:06:19 10° N
SMAP 3.9 05:56:44 10° NNE 06:01:20 57° E 06:05:53 10° S
CZ-2D R/B 4.2 06:00:52 10° NNE 06:03:55 43° E 06:06:56 10° S
